Location: C�an Torras
(41.5052°N, 1.9280°E)
Time: 02:07:31
(UTC+00:00)

CZ-2C R/B - Pass Details

Date: 20 January 2021
Orbit: 785 x 870 km, 98.2° (Epoch: 08 March)

Event Time Altitude Azimuth Distance (km) Brightness Sun altitude
Exits shadow 19:27:11 54° 355° (N) 1,035 3.0 -28.5°
Maximum altitude 19:28:26 76° 286° (WNW) 891 2.8 -28.8°
Drops below altitude 10° 19:34:01 10° 201° (SSW) 2,506 5.4 -29.8°
Sets 19:36:24 0° 200° (SSW) 3,442 6.1 -30.2°
